Regional Weather Roundup
Issued by NWS Sterling, VA

Home | Current Version | Previous Version | Graphics & Text | Print | Product List | Glossary Off
Versions: 1 2 3 4 5 6 7 8 9 10 11 12 13 14 15 16 17 18 19 20 21 22 23 24 25 26 27 28 29 30 31 32 33 34 35 36 37 38 39 40 41 42 43 44 45 46 47 48 49 50

000
ASUS41 KLWX 290410
RWRLWX

REGIONAL WEATHER ROUNDUP
NATIONAL WEATHER SERVICE BALTIMORE MD/WASHINGTON DC
1200 AM EDT FRI AUG 29 2014

Note: "FAIR" indicates few or no clouds below 12,000 feet
with no significant weather and/or obstructions to visibility.
 TC=TEMPERATURE CELSIUS

 * =Non NWS site. Station does not report precipitation (e.g. rain,
    snow, etc.), thunder, or fog.

DCZ001-MDZ009-015-VAZ040>042-051-053>054-290500-
WASHINGTON METRO
  /KDAA//-FT BELVOIR

CITY           SKY/WX    TMP DP  RH WIND       PRES   REMARKS
WASHINGTON NAT CLEAR     73  53  49 N9        30.09R
DULLES         CLEAR     64  54  69 CALM      30.11R
ANDREWS AFB    CLEAR     67  54  63 SW3       30.09R
QUANTICO       CLEAR     70  54  56 N6        30.10R
COLLEGE PARK*  CLEAR     63  59  88 CALM      30.09R
LEESBURG*      CLEAR     64  57  77 CALM      30.11S
MANASSAS*      CLEAR     61  59  94 CALM      30.11R
GAITHERSBURG*  CLEAR     61  52  72 CALM      30.14R

$$

MDZ006>007-011-014-290500-
BALTIMORE METRO

CITY           SKY/WX    TMP DP  RH WIND       PRES   REMARKS
BWI AIRPORT    CLEAR     64  55  72 CALM      30.09R
MD SCIENCE CTR   N/A     73  51  46 MISG      30.09R
MARTIN STATE   CLEAR     64  55  72 CALM      30.10R
ANNAPOLIS      CLEAR     73  56  54 N5        30.08R
FORT MEADE*    CLEAR     57  55  94 CALM      30.11S

$$

MDZ012-015-019>023-290500-
MARYLAND EASTERN SHORE

CITY           SKY/WX    TMP DP  RH WIND       PRES   REMARKS
OCEAN CITY     CLEAR     59  56  89 N5        30.06R
SALISBURY      CLEAR     68  56  65 N5        30.07R
BAY BRIDGE AP*   N/A     70  55  60 CALM      30.08R
CAMBRIDGE*     CLEAR     63  55  77 CALM      30.07S
EASTON*        CLEAR     65  57  75 CALM      30.12R

$$

MDZ017>025-290500-
SOUTHERN MARYLAND

CITY           SKY/WX    TMP DP  RH WIND       PRES   REMARKS
PATUXENT RIVER CLEAR     71  55  56 NE12      30.07R
ST INIGOES     CLEAR     72  57  59 NE7       30.07R
LEONARDTOWN*   CLEAR     66  55  68 CALM      30.09R

$$

MDZ003>005-290500-
NORTH CENTRAL MARYLAND

CITY           SKY/WX    TMP DP  RH WIND       PRES   REMARKS
FREDERICK*     CLEAR     63  57  82 NE5       30.13R
HAGERSTOWN APT CLEAR     64  52  64 NW5       30.12R
WESTMINSTER*   PTCLDY    63  57  82 N3        30.12R

$$

MDZ501>502-290500-
WESTERN MARYLAND

CITY           SKY/WX    TMP DP  RH WIND       PRES   REMARKS
OAKLAND*       CLEAR     55  54  94 CALM      30.21R
CUMBERLAND*    CLEAR     59  52  77 NW5       30.19R

$$

VAZ025>031-290500-
SHENANDOAH VALLEY

CITY           SKY/WX    TMP DP  RH WIND       PRES   REMARKS
WINCHESTER*    CLEAR     63  50  63 N3        30.12S
STAUNTON*      CLEAR     65  54  65 CALM      30.15R

$$

WVZ021-048>050-054>055-290500-
EASTERN WEST VIRGINIA PANHANDLE

CITY           SKY/WX    TMP DP  RH WIND       PRES   REMARKS
MARTINSBURG    CLEAR     65  49  56 CALM      30.13R
PETERSBURG*    NOT AVBL

$$

VAZ036>039-050-290500-
CENTRAL FOOTHILLS

CITY           SKY/WX    TMP DP  RH WIND       PRES   REMARKS
CHARLOTTESVILL CLEAR     70  57  63 NE7       30.10R
ORANGE*        CLEAR     68  54  60 NE3       30.11S

$$

VAZ055>057-290500-
NORTH AND CENTRAL PIEDMONT

CITY           SKY/WX    TMP DP  RH WIND       PRES   REMARKS
FREDERICKSBRG* CLEAR     71  60  67 N5        30.08R
STAFFORD*      CLEAR     65  57  75 N6        30.13S

$$

NCZ024-NYZ072-PAZ021-071-VAZ022-071-290500-
OTHER REGIONAL OBSERVATIONS

CITY           SKY/WX    TMP DP  RH WIND       PRES   REMARKS
NEW YORK CITY  CLEAR     67  46  47 VRB3      30.09R
PHILADELPHIA   CLEAR     68  48  48 N13       30.10R
PITTSBURGH     PTCLDY    61  51  70 CALM      30.17R
ROANOKE        CLEAR     74  61  63 E6        30.11R
RICHMOND       MOCLDY    75  62  64 NE6       30.07R
RALEIGH        PTCLDY    75  71  87 CALM      30.02S

$$

ANZ530>537-290500-
MARINE OBSERVATIONS

STATION/POSITION TIME  TEMP    WIND        PRES
                       AIR SEA DIR/SP/G
                 (UTC) (F)     (DEG/KT/KT) (MB)
THOMAS PT LIGHT  0400   74 78  360/ 11/ 12 1019.3R
BALT KEY BRIDGE  0400   80     340/  6/  7 1018.3F
COVE POINT       0400   74      60/ 11/ 13 1018.3R
LEWISETTA        0400   77 80   40/  7/ 11 1017.6S
SOLOMONS ISLAND  0400      81                N/A
PINEY POINT      0400           60/  6/  7   N/A

$$



USA.gov is the U.S. government's official web portal to all federal, state and local government web resources and services.